Terug naar catalogus

ARIANE 5 R/B

ActiefHEO
NORAD 53766·ROCKET BODY·🇫🇷 France

Gelanceerd Sep 7, 2022 vanaf Guiana Space Centre

Loading…

Volgende Passages (komende 24 uur)

TLE

VersSource: Space-Track

Epoch: Sep 14, 2026, 16:15 UTC

1 53766U 22110B   26257.67743501  .00006128  00000-0  92292-3 0  9992
2 53766   4.1473 157.8495 7642805 150.0268 293.5745  1.85913164 13244

Volg ARIANE 5 R/B in realtime met AllMySat

Download on the App Store